[[{"header":{"parameterUnit":"m.s-1","parameterCategory":2,"la1":30.2991,"la2":30.254,"lo1":-89.0895,"lo2":-89.0444,"dy":0.0017,"dx":0.0017,"nx":28,"ny":28,"refTime":"2025-08-19T09:00:00:Z","depth":"0","parameterNumber":2,"parameterNumberName":"U-component_of_CURRENTS"},"data":[0,0,0,0,0,0,0,0,0,0,0,0,0,0,0,0,0,0,0,0,0,0,0,0,0,0,0,0,0,0,0,0,0,0,0,0,0,0,0,0,0,0,0,0,0,0,0,0,0,0,0,0,0,0,0,0,0,0,0.3692,0.3693,0,0.3739,0.3739,0.3739,0.3717,0.3716,0.3716,0.3715,0.3705,0.3706,0.3706,0,0,0,0,0,0,0,0,0,0,0,0,0,0.3598,0.3599,0.3692,0.3693,0.3694,0.3739,0.3739,0.3739,0.3717,0.3716,0.3716,0.3715,0.3705,0.3706,0.3706,0,0,0,0,0,0,0,0,0,0,0,0,0,0.3635,0.36,0.3692,0.3694,0.3695,0.3739,0.3739,0.3739,0.3717,0.3716,0.3716,0.3715,0.3705,0.3706,0.3706,0.3725,0,0,0.3707,0.3707,0,0,0,0,0,0,0,0,0.3633,0.3637,0.3692,0.3694,0.3695,0.3727,0.3703,0.3734,0.3717,0.3702,0.3715,0.3714,0.3713,0.3712,0.3714,0.3725,0.3724,0.3707,0.3707,0.3708,0.3708,0,0,0,0,0,0,0,0.363,0.3636,0.3704,0.3694,0.3696,0.3698,0.3701,0.3708,0.3705,0.3703,0.3703,0.3719,0.3712,0.3714,0.3714,0.3724,0.3707,0.3708,0.3708,0.3708,0.3788,0.379,0,0,0,0,0,0,0.3639,0.3633,0.3702,0.3706,0.3669,0.3701,0.3704,0.3712,0.3706,0.3707,0.372,0.3718,0.3713,0.3713,0.3713,0.3779,0.3708,0.3708,0.3708,0.3786,0.3789,0.3791,0,0,0,0,0,0,0.3636,0.3644,0.3701,0.3676,0.3684,0.3704,0.3713,0.3714,0.3719,0.3721,0.3719,0.3725,0.3713,0.3713,0.3728,0.3777,0.3708,0.3709,0.3784,0.3787,0.379,0.3883,0,0,0,0,0,0,0.3633,0.3642,0.365,0.3677,0.3686,0.3736,0.3714,0.3716,0.3734,0.3731,0.3725,0.3723,0.3712,0.3727,0.3728,0.3776,0.3709,0.3782,0.3785,0.3789,0.3878,0.3889,0.3899,0,0,0,0,0,0.3629,0.3643,0.365,0.3659,0.3696,0.3738,0.3742,0.3748,0.3735,0.3746,0.3741,0.3723,0.3751,0.3729,0.3729,0.3779,0.378,0.3784,0.3788,0.3873,0.3887,0.3898,0,0,0,0,0,0,0.3611,0.3644,0.3651,0.3675,0.3711,0.3736,0.3752,0.3755,0.3759,0.3753,0.374,0.3739,0.3776,0.3761,0.3737,0.3813,0.3766,0.3771,0.3831,0.3843,0.3853,0.3879,0.3709,0,0,0,0,0,0.3613,0.3626,0.3667,0.3689,0.3708,0.373,0.3747,0.3755,0.3768,0.3768,0.3767,0.3771,0.3796,0.3803,0.3814,0.3848,0.3875,0.3882,0.3893,0.3902,0.3924,0.3967,0.3984,0.3805,0.3805,0.3805,0,0,0.3609,0.3634,0.3639,0.3686,0.3709,0.3752,0.3736,0.377,0.3808,0.3768,0.3806,0.3806,0.3813,0.3857,0.3873,0.3849,0.3981,0.3907,0.3915,0.3932,0.3973,0.3991,0.4007,0.3808,0.3807,0.3807,0,0,0.3617,0.3637,0.3653,0.3689,0.3739,0.3766,0.378,0.3813,0.3831,0.3869,0.3861,0.389,0.3908,0.3936,0.3951,0.4024,0.4034,0.4026,0.4101,0.4143,0.4158,0.4171,0.4289,0.4312,0.4031,0.4031,0.4031,0,0.3609,0.3648,0.3667,0.3705,0.3745,0.3777,0.3819,0.3855,0.3888,0.3906,0.3892,0.3949,0.3956,0.4029,0.4067,0.4052,0.4095,0.4052,0.4157,0.4171,0.4183,0.4299,0.4324,0.4036,0.4035,0.4035,0.4034,0,0.3636,0.3677,0.3698,0.3758,0.3798,0.3845,0.3905,0.394,0.3963,0.3989,0.4052,0.4071,0.4095,0.4122,0.4125,0.4223,0.4237,0.4166,0.4126,0.4207,0.4325,0.4349,0.4043,0.4041,0.404,0.4038,0,0,0.3589,0.3693,0.37,0.3746,0.3833,0.3869,0.3946,0.4019,0.4069,0.4104,0.417,0.4233,0.4223,0.4242,0.4251,0.4317,0.4471,0.4292,0.4292,0.4415,0.4631,0.4599,0.4622,0.4407,0.441,0.4412,0.4701,0,0.3608,0.3695,0.3737,0.3827,0.3888,0.3942,0.4014,0.4077,0.4135,0.4205,0.4245,0.4311,0.4276,0.431,0.436,0.4439,0.4528,0.4404,0.453,0.4537,0.45,0.4645,0.4426,0.4658,0.4724,0.4728,0.4731,0,0.3617,0.3687,0.3776,0.3887,0.3912,0.3961,0.4073,0.4142,0.4244,0.4286,0.4338,0.437,0.4489,0.4437,0.4609,0.4528,0.4596,0.466,0.467,0.4619,0.4546,0.4576,0.4698,0.4543,0.4767,0.4764,0.4761,0,0.3599,0.3706,0.3784,0.3823,0.3952,0.3985,0.4047,0.4151,0.4218,0.4347,0.4408,0.4501,0.4586,0.4656,0.4772,0.47,0.4981,0.4874,0.4927,0.4929,0.4759,0.4738,0.474,0.5007,0.5006,0.5005,0.5004,0,0.3625,0.3686,0.3776,0.3829,0.3903,0.3982,0.4067,0.4144,0.4262,0.4353,0.4436,0.454,0.4643,0.479,0.4849,0.4992,0.5028,0.5002,0.5002,0.4792,0.4771,0.4636,0.4579,0.5016,0.5014,0.5012,0.501,0,0.3627,0.369,0.3774,0.3881,0.3904,0.3957,0.4063,0.413,0.4253,0.4385,0.4437,0.462,0.4833,0.4961,0.5154,0.5113,0.51,0.5276,0.5072,0.5041,0.4871,0.4829,0.4739,0.4603,0.5376,0.5376,0.5377,0,0.3661,0.3701,0.3783,0.3823,0.3873,0.3949,0.3999,0.4109,0.4179,0.4426,0.4486,0.4757,0.4904,0.52,0.5233,0.5378,0.5204,0.5239,0.5032,0.489,0.4844,0.4641,0.4517,0.4889,0.4885,0.4883,0.4881,0,0.3734,0.3733,0.3804,0.3837,0.3881,0.3925,0.4,0.4045,0.4197,0.4318,0.4512,0.4667,0.4969,0.5021,0.5222,0.525,0.4951,0.5187,0.5058,0.4507,0.4266,0.4123,0.4737,0.4857,0.4859,0.4861,0.4862,0.4863,0.3787,0.3797,0.3837,0.3852,0.3892,0.3886,0.3878,0.397,0.4054,0.4206,0.4429,0.4594,0.4775,0.501,0.5018,0.4857,0.4841,0.4669,0.4662,0.4495,0.4234,0.485,0.493,0.4932,0.4934,0.4937,0.4938,0,0.3824,0.3815,0.3849,0.384,0.3823,0.384,0.3863,0.3826,0.3867,0.4082,0.4235,0.4378,0.4462,0.457,0.4498,0.4313,0.4087,0.4204,0.3833,0.3759,0.433,0.417,0.4062,0.4062,0.4062,0.4062,0.4062,0.4062,0.3863,0.3852,0.3807,0.3754,0.3736,0.3632,0.3603,0.3582,0.3664,0.3729,0.3796,0.3937,0.41,0.4184,0.4002,0.3903,0.3574,0.3435,0.3453,0.3817,0.3856,0.3892,0.3725,0.3524,0.3524,0.2655,0.2649,0.2644]},{"header":{"parameterUnit":"m.s-1","parameterCategory":2,"la1":30.2991,"la2":30.254,"lo1":-89.0895,"lo2":-89.0444,"dy":0.0017,"dx":0.0017,"nx":28,"ny":28,"refTime":"2025-08-19T09:00:00:Z","depth":"0","parameterNumber":3,"parameterNumberName":"V-component_of_CURRENTS"},"data":[0,0,0,0,0,0,0,0,0,0,0,0,0,0,0,0,0,0,0,0,0,0,0,0,0,0,0,0,0,0,0,0,0,0,0,0,0,0,0,0,0,0,0,0,0,0,0,0,0,0,0,0,0,0,0,0,0,0,0.0018,0.0017,0,-0.0041,-0.0041,-0.0042,-0.0089,-0.009,-0.009,-0.009,-0.0203,-0.0205,-0.0208,0,0,0,0,0,0,0,0,0,0,0,0,0,0.0011,0.0012,0.0018,0.0017,0.0016,-0.0041,-0.0041,-0.0042,-0.0089,-0.009,-0.009,-0.0091,-0.0202,-0.0205,-0.0208,0,0,0,0,0,0,0,0,0,0,0,0,0,-0.0011,0.0012,0.0018,-0.0013,-0.0016,-0.004,-0.0042,-0.0043,-0.0089,-0.009,-0.009,-0.0091,-0.0201,-0.0205,-0.0208,-0.0222,0,0,-0.0221,-0.0222,0,0,0,0,0,0,0,0,-0.001,-0.0011,-0.0008,-0.0011,-0.0014,-0.0057,-0.0085,-0.0105,-0.0089,-0.0063,-0.009,-0.0091,-0.0158,-0.0165,-0.0176,-0.0227,-0.0232,-0.0221,-0.0223,-0.0225,-0.0226,0,0,0,0,0,0,0,-0.0008,-0.0009,-0.0007,-0.0008,-0.0012,-0.005,-0.0053,-0.0089,-0.0109,-0.0065,-0.0068,-0.0073,-0.016,-0.0172,-0.0179,-0.0234,-0.0221,-0.0224,-0.0227,-0.0228,-0.0334,-0.0334,0,0,0,0,0,0,0.0007,-0.0007,-0.0005,-0.0008,-0.0012,-0.0049,-0.0053,-0.0044,-0.0107,-0.0116,-0.0072,-0.0075,-0.0165,-0.0174,-0.0183,-0.0225,-0.0225,-0.0229,-0.0231,-0.0333,-0.0334,-0.0334,0,0,0,0,0,0,0.0007,0.0008,-0.0003,-0.0009,-0.0013,-0.0048,-0.0038,-0.0045,-0.0055,-0.0111,-0.0122,-0.0075,-0.0166,-0.0178,-0.0212,-0.0229,-0.0231,-0.0234,-0.0333,-0.0333,-0.0334,-0.0294,0,0,0,0,0,0,0.0007,0.0009,0.0018,-0.0007,-0.0012,-0.0009,-0.0037,-0.0046,-0.0057,-0.0061,-0.0118,-0.0129,-0.0167,-0.0205,-0.0215,-0.0234,-0.0237,-0.0332,-0.0333,-0.0334,-0.0295,-0.0293,-0.0292,0,0,0,0,0,0.0007,0.003,0.0019,0.0019,0.0003,-0.0008,-0.0014,-0.0042,-0.0056,-0.0055,-0.0095,-0.0127,-0.0218,-0.0208,-0.022,-0.0241,-0.0332,-0.0333,-0.0334,-0.0295,-0.0293,-0.0292,0,0,0,0,0,0,0.0032,0.0026,0.0014,0.0033,0.0015,-0.0015,-0.0016,-0.0035,-0.0066,-0.0071,-0.0125,-0.0139,-0.0177,-0.021,-0.0197,-0.0274,-0.0283,-0.0287,-0.025,-0.0249,-0.0247,-0.0229,-0.0241,0,0,0,0,0,0.0043,0.006,0.0038,0.0054,0.0047,0.0016,0.0007,-0.001,-0.0039,-0.0053,-0.0094,-0.0143,-0.019,-0.0218,-0.0257,-0.0294,-0.028,-0.0317,-0.0316,-0.0314,-0.0308,-0.0299,-0.0295,-0.0337,-0.0337,-0.0337,0,0,0.0056,0.0056,0.0064,0.006,0.0043,0.0035,0.001,0.0005,-0.0015,-0.0061,-0.0096,-0.0133,-0.0196,-0.0239,-0.026,-0.027,-0.0289,-0.0315,-0.0314,-0.0308,-0.03,-0.0295,-0.0291,-0.0338,-0.0338,-0.0338,0,0,0.0091,0.0091,0.0111,0.01,0.0084,0.0059,0.0061,0.0031,0.0005,-0.0026,-0.0071,-0.011,-0.0178,-0.0227,-0.0262,-0.0275,-0.0275,-0.0296,-0.0282,-0.0274,-0.027,-0.0266,-0.0206,-0.0198,-0.0303,-0.0303,-0.0303,0,0.0105,0.0123,0.0113,0.0121,0.0111,0.0072,0.0075,0.0042,0.0002,-0.0007,-0.0032,-0.0114,-0.0175,-0.0226,-0.0248,-0.0272,-0.0245,-0.0283,-0.0269,-0.0265,-0.0262,-0.0203,-0.0194,-0.0301,-0.0301,-0.0301,-0.0301,0,0.0147,0.0152,0.0162,0.0156,0.0146,0.0144,0.01,0.0087,0.0051,0.0022,-0.0018,-0.0092,-0.0134,-0.0177,-0.0228,-0.0249,-0.0225,-0.0258,-0.0266,-0.0255,-0.0193,-0.0184,-0.0298,-0.0299,-0.0299,-0.03,0,0,0.0197,0.0191,0.0193,0.0195,0.0162,0.0167,0.0136,0.0109,0.0121,0.0053,0.0066,-0.0059,-0.0077,-0.0119,-0.0181,-0.0205,-0.0171,-0.0228,-0.0229,-0.0154,-0.0103,-0.0064,-0.005,-0.0197,-0.0196,-0.0195,-0.0054,0,0.0223,0.0249,0.0232,0.0242,0.0245,0.0208,0.0196,0.0172,0.0144,0.0152,0.0066,0.0056,-0.0064,-0.0062,-0.0117,-0.0148,-0.0152,-0.0203,-0.0138,-0.0135,-0.0091,-0.0041,-0.0061,0.0065,-0.0045,-0.0044,-0.0043,0,0.0264,0.0274,0.0294,0.0296,0.0298,0.0303,0.0309,0.0297,0.0282,0.0272,0.0236,0.0193,0.0135,0.0051,-0.001,-0.0031,-0.0067,-0.0098,-0.0093,-0.0067,-0.0081,0.0026,0.0085,-0.0157,-0.0029,-0.003,-0.0031,0,0.0312,0.0317,0.0337,0.0335,0.0333,0.0349,0.0352,0.0348,0.0388,0.0379,0.0448,0.0336,0.037,0.0251,0.0161,0.0088,0.0147,0.0045,0.0055,0.006,0.005,0.0053,-0.0108,0.0027,0.0027,0.0026,0.0026,0,0.0345,0.0363,0.0373,0.0389,0.0455,0.0422,0.0504,0.0498,0.0544,0.0658,0.0533,0.0637,0.0426,0.0425,0.0263,0.0223,0.0235,0.0087,0.0097,0.0067,0.0069,-0.0138,-0.0274,0.0032,0.003,0.0029,0.0028,0,0.0398,0.039,0.044,0.0462,0.0486,0.0547,0.0643,0.0715,0.0738,0.0898,0.0923,0.0918,0.0932,0.0747,0.0637,0.0437,0.0226,0.0326,0.0333,0.0338,0.0051,-0.008,-0.0162,-0.0262,0.0329,0.0331,0.0333,0,0.043,0.0453,0.053,0.0607,0.0631,0.0719,0.0801,0.0823,0.0931,0.1105,0.1219,0.1285,0.1392,0.1241,0.0905,0.068,0.041,0.0473,0.0284,0.0058,-0.0081,-0.0183,-0.0271,0.0308,0.0309,0.031,0.0311,0,0.0507,0.0538,0.0601,0.0748,0.0854,0.0972,0.1095,0.1211,0.1296,0.1469,0.1723,0.1835,0.1715,0.1499,0.1154,0.0929,0.0279,0.0486,0.023,-0.0121,-0.0219,-0.0316,0.0223,0.032,0.0319,0.0318,0.0318,0.0317,0.0607,0.0677,0.0776,0.0916,0.1047,0.1218,0.1348,0.152,0.175,0.2049,0.2122,0.237,0.1943,0.1488,0.115,0.0428,0.0425,0.0153,0.0023,-0.005,-0.0201,0.039,0.0495,0.0496,0.0496,0.0496,0.0496,0,0.0734,0.0803,0.0941,0.1117,0.1276,0.131,0.1544,0.1707,0.2025,0.2354,0.2616,0.2568,0.2048,0.1427,0.0472,0.0005,-0.022,-0.0267,-0.0482,-0.0546,-0.0035,-0.0098,-0.0091,-0.0091,-0.0091,-0.0091,-0.009,-0.009,0.0823,0.0959,0.1006,0.1276,0.1406,0.1624,0.1765,0.2046,0.2311,0.2726,0.292,0.3039,0.248,0.0821,-0.0288,-0.053,-0.091,-0.0931,-0.1093,-0.0843,-0.0817,-0.0793,-0.0889,-0.1048,-0.1049,-0.1587,-0.1592,-0.1596]}],[{"header":{"parameterUnit":"m.s-1","parameterCategory":2,"la1":30.2991,"la2":30.254,"lo1":-89.0895,"lo2":-89.0444,"dy":0.0017,"dx":0.0017,"nx":28,"ny":28,"refTime":"2025-08-19T09:00:00:Z","depth":"2","parameterNumber":2,"parameterNumberName":"U-component_of_CURRENTS"},"data":[0,0,0,0,0,0,0,0,0,0,0,0,0,0,0,0,0,0,0,0,0,0,0,0,0,0,0,0,0,0,0,0,0,0,0,0,0,0,0,0,0,0,0,0,0,0,0,0,0,0,0,0,0,0,0,0,0,0,0.2725,0.2726,0,0.275,0.275,0.275,0.2759,0.276,0.276,0.276,0.2771,0.2771,0.2771,0,0,0,0,0,0,0,0,0,0,0,0,0,0.2657,0.2658,0.2725,0.2726,0.2727,0.2751,0.275,0.275,0.2759,0.276,0.276,0.2761,0.2771,0.2771,0.2771,0,0,0,0,0,0,0,0,0,0,0,0,0,0.268,0.2658,0.2725,0.2738,0.274,0.2751,0.275,0.275,0.2759,0.276,0.276,0.2761,0.2771,0.2771,0.2771,0.2758,0,0,0.2771,0.2771,0,0,0,0,0,0,0,0,0.2679,0.2682,0.2736,0.2737,0.274,0.2757,0.2731,0.2754,0.2759,0.2746,0.276,0.2761,0.2768,0.2768,0.2764,0.2759,0.2759,0.2771,0.2771,0.2771,0.2771,0,0,0,0,0,0,0,0.2677,0.2681,0.273,0.2736,0.2739,0.2734,0.2737,0.2735,0.2749,0.2747,0.2749,0.2761,0.2769,0.2764,0.2765,0.2759,0.2771,0.2771,0.2771,0.277,0.2838,0.284,0,0,0,0,0,0,0.2686,0.2679,0.2729,0.2731,0.2716,0.2735,0.2739,0.2746,0.275,0.2752,0.276,0.2761,0.2764,0.2765,0.2765,0.2824,0.2771,0.277,0.277,0.2836,0.2838,0.284,0,0,0,0,0,0,0.2684,0.269,0.2728,0.271,0.2715,0.2736,0.2744,0.2747,0.2763,0.276,0.2762,0.2777,0.2765,0.2765,0.2784,0.2822,0.277,0.277,0.2834,0.2837,0.2839,0.2894,0,0,0,0,0,0,0.2682,0.2689,0.27,0.2711,0.2717,0.275,0.2745,0.2747,0.2771,0.2772,0.2775,0.2776,0.2765,0.2784,0.2784,0.2821,0.277,0.2831,0.2835,0.2838,0.289,0.2898,0.2906,0,0,0,0,0,0.2679,0.2693,0.27,0.2707,0.2731,0.2752,0.2754,0.2766,0.2771,0.2782,0.2787,0.2777,0.2807,0.2785,0.2784,0.2822,0.283,0.2834,0.2838,0.2886,0.2897,0.2905,0,0,0,0,0,0,0.2649,0.2696,0.2704,0.2726,0.2746,0.2756,0.2768,0.2778,0.2789,0.28,0.2787,0.2788,0.2822,0.2815,0.2791,0.2855,0.2822,0.2827,0.2859,0.2869,0.2877,0.2932,0.277,0,0,0,0,0,0.2654,0.2692,0.2715,0.2735,0.2744,0.2759,0.2771,0.2789,0.2801,0.2807,0.2812,0.2824,0.2835,0.2846,0.2853,0.2878,0.2917,0.2908,0.2916,0.2922,0.297,0.3048,0.3068,0.2854,0.2854,0.2854,0,0,0.2656,0.268,0.2706,0.2735,0.2746,0.2761,0.2766,0.28,0.2828,0.2806,0.2842,0.2848,0.2848,0.2881,0.2897,0.2882,0.3002,0.2928,0.2933,0.2978,0.3055,0.3076,0.3095,0.2857,0.2857,0.2856,0,0,0.2662,0.269,0.2718,0.2739,0.2776,0.2783,0.2799,0.2828,0.2857,0.2889,0.289,0.2928,0.293,0.2955,0.296,0.3018,0.3038,0.3019,0.3105,0.318,0.3199,0.3216,0.3282,0.3305,0.3025,0.3025,0.3025,0,0.2669,0.2688,0.2726,0.2744,0.277,0.2793,0.2817,0.2843,0.2882,0.2927,0.2912,0.2982,0.2971,0.3039,0.3065,0.3039,0.3088,0.3061,0.3192,0.321,0.3226,0.329,0.3314,0.3028,0.3028,0.3027,0.3027,0,0.2678,0.2703,0.2716,0.2753,0.2785,0.2813,0.2858,0.2901,0.2935,0.2976,0.3068,0.3075,0.3127,0.3126,0.3111,0.323,0.3228,0.3188,0.3168,0.3251,0.3313,0.3337,0.3033,0.3031,0.3031,0.303,0,0,0.2676,0.272,0.2727,0.2754,0.2801,0.2832,0.2888,0.2959,0.3028,0.3081,0.3175,0.3217,0.3261,0.3276,0.3278,0.3352,0.3489,0.3337,0.3339,0.3406,0.3673,0.3527,0.3539,0.3477,0.3482,0.3486,0.3664,0,0.2671,0.2704,0.2737,0.2784,0.2803,0.2866,0.2918,0.3003,0.3077,0.3171,0.3241,0.3321,0.3305,0.335,0.3424,0.3475,0.356,0.3446,0.3583,0.3588,0.3449,0.3565,0.3273,0.3396,0.3688,0.3692,0.3695,0,0.2659,0.2688,0.2729,0.2815,0.2835,0.2877,0.3004,0.3078,0.3215,0.3274,0.339,0.3439,0.3571,0.3527,0.3708,0.3643,0.3687,0.372,0.3726,0.36,0.3488,0.3363,0.343,0.3736,0.3733,0.373,0.3727,0,0.2634,0.2689,0.2727,0.2753,0.2843,0.2906,0.2984,0.3122,0.3211,0.3381,0.3453,0.3594,0.3688,0.3778,0.3843,0.3802,0.4025,0.3953,0.3874,0.3863,0.365,0.3611,0.4104,0.4103,0.4103,0.4102,0.4102,0,0.2617,0.2653,0.2722,0.2755,0.2825,0.2926,0.3055,0.3144,0.3298,0.341,0.3535,0.3621,0.3767,0.3883,0.3916,0.3978,0.4085,0.3941,0.3918,0.3655,0.3617,0.393,0.3908,0.4109,0.4108,0.4106,0.4105,0,0.2604,0.2627,0.2699,0.2802,0.2816,0.2913,0.3068,0.3172,0.3324,0.3475,0.3533,0.3701,0.3852,0.3964,0.4116,0.4069,0.4128,0.4116,0.3795,0.3728,0.3903,0.3882,0.4069,0.4066,0.4063,0.4061,0.4059,0,0.2594,0.2619,0.2732,0.277,0.2824,0.2944,0.3008,0.3158,0.327,0.3492,0.3551,0.3749,0.3822,0.3993,0.3982,0.4039,0.4115,0.3774,0.3627,0.3952,0.391,0.3893,0.3875,0.3375,0.3367,0.3362,0.3357,0,0.261,0.2669,0.2759,0.2791,0.2858,0.2919,0.3039,0.308,0.3272,0.3374,0.3483,0.3556,0.3734,0.3646,0.3733,0.3703,0.3733,0.3649,0.412,0.3398,0.3303,0.3259,0.3264,0.3303,0.3308,0.3312,0.3315,0.3317,0.2659,0.2701,0.2781,0.2812,0.2881,0.2864,0.2864,0.2973,0.304,0.3127,0.3275,0.3298,0.3383,0.3341,0.3264,0.3218,0.3458,0.3305,0.3323,0.3347,0.3204,0.3105,0.3044,0.3047,0.3051,0.3054,0.3056,0,0.264,0.2672,0.2747,0.2765,0.2804,0.2837,0.2841,0.2808,0.28,0.2904,0.2946,0.2735,0.272,0.282,0.2673,0.2667,0.2627,0.2557,0.2492,0.2549,0.2599,0.2415,0.2048,0.2044,0.2041,0.2038,0,0,0.2616,0.2626,0.2624,0.2629,0.2676,0.2579,0.254,0.2483,0.2495,0.2408,0.2389,0.2584,0.2736,0.2356,0.2316,0.2161,0.2327,0.2072,0.289,0.2872,0.2917,0.305,0.2834,0,0,0,0,0]},{"header":{"parameterUnit":"m.s-1","parameterCategory":2,"la1":30.2991,"la2":30.254,"lo1":-89.0895,"lo2":-89.0444,"dy":0.0017,"dx":0.0017,"nx":28,"ny":28,"refTime":"2025-08-19T09:00:00:Z","depth":"2","parameterNumber":3,"parameterNumberName":"V-component_of_CURRENTS"},"data":[0,0,0,0,0,0,0,0,0,0,0,0,0,0,0,0,0,0,0,0,0,0,0,0,0,0,0,0,0,0,0,0,0,0,0,0,0,0,0,0,0,0,0,0,0,0,0,0,0,0,0,0,0,0,0,0,0,0,0.0165,0.0165,0,0.011,0.0109,0.0109,0.0062,0.0062,0.0062,0.0062,-0.0033,-0.0035,-0.0038,0,0,0,0,0,0,0,0,0,0,0,0,0,0.0163,0.0164,0.0166,0.0165,0.0165,0.011,0.0109,0.0108,0.0063,0.0062,0.0062,0.0061,-0.0032,-0.0035,-0.0038,0,0,0,0,0,0,0,0,0,0,0,0,0,0.014,0.0164,0.0166,0.0137,0.0134,0.0111,0.0109,0.0108,0.0063,0.0062,0.0062,0.0061,-0.0031,-0.0035,-0.0038,-0.005,0,0,-0.0048,-0.005,0,0,0,0,0,0,0,0,0.0141,0.014,0.0142,0.0139,0.0135,0.0095,0.0074,0.0054,0.0063,0.0087,0.0062,0.0061,0.0008,0.0001,-0.0011,-0.0055,-0.0059,-0.0049,-0.0051,-0.0052,-0.0053,0,0,0,0,0,0,0,0.0143,0.0141,0.0141,0.0141,0.0137,0.0103,0.01,0.0069,0.0048,0.0085,0.0082,0.008,0.0005,-0.0008,-0.0014,-0.006,-0.0049,-0.0052,-0.0054,-0.0055,-0.0124,-0.0123,0,0,0,0,0,0,0.0159,0.0143,0.0143,0.014,0.014,0.0104,0.01,0.0106,0.0049,0.0041,0.008,0.0078,-0.0002,-0.001,-0.0017,-0.0023,-0.0052,-0.0055,-0.0057,-0.0124,-0.0123,-0.0123,0,0,0,0,0,0,0.0159,0.0159,0.0145,0.0141,0.0137,0.0105,0.0112,0.0106,0.0094,0.0046,0.0037,0.0076,-0.0002,-0.0012,-0.0038,-0.0028,-0.0057,-0.006,-0.0124,-0.0124,-0.0123,-0.0043,0,0,0,0,0,0,0.0159,0.016,0.0165,0.0143,0.0138,0.0141,0.0113,0.0105,0.0094,0.009,0.004,0.003,-0.0003,-0.0033,-0.0042,-0.0033,-0.0063,-0.0124,-0.0124,-0.0123,-0.0046,-0.004,-0.0035,0,0,0,0,0,0.0159,0.0178,0.0166,0.0165,0.0149,0.0142,0.0137,0.011,0.0095,0.0096,0.006,0.0032,-0.0037,-0.0035,-0.0046,-0.0037,-0.0124,-0.0124,-0.0123,-0.0048,-0.0041,-0.0035,0,0,0,0,0,0,0.0182,0.0175,0.0161,0.0176,0.0162,0.0135,0.0135,0.0116,0.0089,0.0082,0.0035,0.0024,0.0002,-0.0029,-0.0026,-0.0058,-0.0086,-0.0087,-0.0025,-0.0019,-0.0013,0.0014,-0.0065,0,0,0,0,0,0.019,0.02,0.0184,0.0195,0.0191,0.0162,0.0154,0.0137,0.0113,0.01,0.0066,0.0028,-0.0004,-0.0019,-0.0054,-0.0067,-0.0096,-0.007,-0.0065,-0.006,-0.0045,-0.0081,-0.0076,-0.0122,-0.0122,-0.0122,0,0,0.0198,0.0199,0.0201,0.02,0.0185,0.0194,0.0156,0.0152,0.0163,0.0094,0.0094,0.0043,-0.0005,-0.0022,-0.0034,-0.0045,-0.0063,-0.0059,-0.0054,-0.0042,-0.008,-0.0075,-0.0071,-0.0121,-0.0121,-0.0121,0,0,0.023,0.0224,0.0243,0.0239,0.0229,0.0217,0.022,0.0196,0.0188,0.0175,0.0129,0.0092,0.0045,0.0017,-0.0004,0.0011,-0.0036,-0.0007,0.0049,0.0014,0.0018,0.0021,-0.0009,-0.0009,0.0001,0.0001,0.0001,0,0.0239,0.027,0.0246,0.0267,0.0281,0.0235,0.0266,0.0249,0.022,0.0224,0.0186,0.0117,0.0067,0.0058,0.0055,0.0026,-0.0003,0.003,0.0023,0.0025,0.0027,-0.0004,-0.0006,0.0005,0.0004,0.0004,0.0003,0,0.0285,0.031,0.0325,0.0342,0.0349,0.0367,0.0352,0.0351,0.0328,0.0307,0.0284,0.0208,0.0174,0.0142,0.0099,0.0091,0.0063,0.0032,0.0012,0.0037,0.0001,-0.0001,0.001,0.0009,0.0008,0.0007,0,0,0.0307,0.0351,0.0355,0.0393,0.0397,0.0416,0.0438,0.0454,0.0477,0.0416,0.0438,0.0354,0.0303,0.0275,0.021,0.0168,0.0141,0.0109,0.0105,0.009,0.0066,0.0018,0.001,0.0106,0.0106,0.0105,0.0038,0,0.0354,0.0435,0.0435,0.0508,0.0555,0.0537,0.0567,0.0569,0.0552,0.0553,0.0471,0.0448,0.0358,0.0334,0.0281,0.0175,0.0137,0.0162,0.0035,0.0032,-0.0006,0.0006,0.0032,-0.0029,0.0034,0.0034,0.0034,0,0.0399,0.0461,0.055,0.0628,0.0644,0.0668,0.0727,0.0743,0.0725,0.0711,0.0668,0.0595,0.0528,0.044,0.0293,0.0312,0.0204,0.0113,0.0108,0.0036,-0.0022,-0.0046,-0.0038,0.0028,0.0029,0.0029,0.0029,0,0.0453,0.0541,0.0629,0.0652,0.0718,0.0755,0.078,0.0789,0.0827,0.0805,0.0821,0.0719,0.0677,0.0528,0.0333,0.0314,0.0164,0.0118,-0.0022,-0.0027,-0.0042,-0.0048,0.0025,0.0025,0.0025,0.0025,0.0025,0,0.0514,0.0581,0.0663,0.0706,0.0816,0.0826,0.0907,0.0921,0.0943,0.1,0.0901,0.0913,0.0694,0.0576,0.0386,0.0177,0.0209,-0.0005,-0.0046,-0.0015,-0.0018,0.0001,-0.0001,0.0023,0.0023,0.0024,0.0024,0,0.0551,0.06,0.0707,0.0802,0.0842,0.0912,0.1,0.1054,0.1066,0.114,0.114,0.1061,0.0905,0.068,0.0436,0.026,0.0053,-0.0028,0.0022,-0.0013,-0.0127,-0.0124,-0.0184,-0.0186,-0.0188,-0.019,-0.0191,0,0.0585,0.0642,0.0774,0.0847,0.0891,0.0994,0.1064,0.1112,0.118,0.1233,0.1279,0.1164,0.1092,0.0721,0.0389,0.0067,0.0034,-0.0118,-0.0158,-0.0114,-0.0147,-0.0141,-0.0136,-0.0146,-0.0147,-0.0147,-0.0148,0,0.0647,0.0675,0.0756,0.0906,0.1005,0.1129,0.1234,0.1316,0.1379,0.1448,0.1494,0.1436,0.1098,0.0766,0.033,0.0109,-0.0071,-0.0144,-0.01,-0.0102,-0.0085,-0.0116,-0.011,-0.0154,-0.0154,-0.0153,-0.0153,-0.0153,0.0677,0.0738,0.083,0.0974,0.1093,0.1242,0.135,0.1466,0.1593,0.1697,0.1626,0.1549,0.1189,0.0613,0.025,-0.0125,-0.012,-0.0254,-0.0248,-0.0243,-0.0231,-0.0219,-0.0311,-0.0311,-0.0311,-0.0311,-0.0312,0,0.0724,0.0779,0.0901,0.1072,0.1205,0.1261,0.1453,0.157,0.1735,0.1783,0.1794,0.1426,0.1061,0.0665,0.0105,-0.024,-0.0251,-0.0341,-0.0272,-0.0265,-0.0258,-0.0245,-0.033,-0.0331,-0.0331,-0.0332,0,0,0.0746,0.0847,0.0908,0.113,0.125,0.1443,0.1554,0.1729,0.182,0.1855,0.1789,0.1657,0.1174,0.0769,0.0307,-0.0,-0.005,-0.0066,-0.0019,0.0124,0.0136,-0.0183,-0.0152,0,0,0,0,0]}],[{"header":{"parameterUnit":"m.s-1","parameterCategory":2,"la1":30.2991,"la2":30.254,"lo1":-89.0895,"lo2":-89.0444,"dy":0.0017,"dx":0.0017,"nx":28,"ny":28,"refTime":"2025-08-19T09:00:00:Z","depth":"4","parameterNumber":2,"parameterNumberName":"U-component_of_CURRENTS"},"data":[0,0,0,0,0,0,0,0,0,0,0,0,0,0,0,0,0,0,0,0,0,0,0,0,0,0,0,0,0,0,0,0,0,0,0,0,0,0,0,0,0,0,0,0,0,0,0,0,0,0,0,0,0,0,0,0,0,0,0.1519,0.152,0,0.1592,0.1593,0.1594,0.1647,0.1648,0.1648,0.1649,0.1724,0.1725,0.1727,0,0,0,0,0,0,0,0,0,0,0,0,0,0.1456,0.1456,0.1519,0.152,0.1522,0.1592,0.1593,0.1594,0.1647,0.1648,0.1648,0.1649,0.1723,0.1725,0.1727,0,0,0,0,0,0,0,0,0,0,0,0,0,0.15,0.1457,0.1519,0.1558,0.1562,0.1592,0.1593,0.1594,0.1647,0.1648,0.1649,0.1649,0.1723,0.1725,0.1727,0.1721,0,0,0.1733,0.1734,0,0,0,0,0,0,0,0,0.1497,0.1502,0.1551,0.1555,0.156,0.1613,0.1598,0.1637,0.1646,0.1613,0.1649,0.165,0.1687,0.1693,0.1702,0.1725,0.1728,0.1734,0.1735,0.1736,0.1736,0,0,0,0,0,0,0,0.1494,0.1499,0.1546,0.1552,0.1558,0.1582,0.1589,0.1606,0.1642,0.1616,0.162,0.1631,0.169,0.1699,0.1704,0.1729,0.1733,0.1735,0.1737,0.1738,0.1852,0.1853,0,0,0,0,0,0,0.1486,0.1496,0.1544,0.1549,0.1532,0.1582,0.159,0.1594,0.1642,0.1651,0.163,0.1633,0.1695,0.1701,0.1707,0.1787,0.1736,0.1738,0.1739,0.185,0.1852,0.1854,0,0,0,0,0,0,0.1484,0.1489,0.1541,0.1526,0.1535,0.1582,0.1586,0.1595,0.1638,0.1654,0.1662,0.1669,0.1696,0.1704,0.1755,0.1787,0.1739,0.1741,0.1848,0.1851,0.1853,0.1893,0,0,0,0,0,0,0.1482,0.1488,0.1509,0.1525,0.1535,0.1576,0.1586,0.1595,0.1642,0.1648,0.1689,0.1695,0.1697,0.1751,0.1757,0.1789,0.1742,0.1846,0.1849,0.1852,0.189,0.1897,0.1903,0,0,0,0,0,0.1479,0.1496,0.1509,0.1517,0.1555,0.1577,0.1585,0.162,0.1643,0.1663,0.1699,0.1696,0.1776,0.1755,0.176,0.1794,0.1844,0.1848,0.1852,0.1887,0.1896,0.1903,0,0,0,0,0,0,0.1471,0.1504,0.1519,0.1543,0.1568,0.1587,0.1617,0.1639,0.1683,0.1702,0.1715,0.1724,0.1781,0.1784,0.176,0.1838,0.1811,0.1816,0.1835,0.1844,0.185,0.1842,0.1744,0,0,0,0,0,0.148,0.1509,0.1531,0.1553,0.1569,0.16,0.1623,0.1646,0.1677,0.17,0.1732,0.1767,0.1795,0.1818,0.1842,0.1883,0.1899,0.1911,0.1918,0.1923,0.1922,0.1983,0.1995,0.1867,0.1867,0.1867,0,0,0.1485,0.1506,0.1525,0.1557,0.1581,0.1601,0.1617,0.1658,0.1684,0.1699,0.1762,0.1793,0.1812,0.186,0.1886,0.1871,0.1971,0.1928,0.1933,0.1928,0.1988,0.2001,0.2012,0.187,0.1869,0.1869,0,0,0.1491,0.1526,0.1548,0.157,0.1613,0.1631,0.1649,0.1691,0.1724,0.1775,0.1799,0.1852,0.1896,0.192,0.1932,0.1992,0.2004,0.2009,0.2037,0.2096,0.2107,0.2117,0.216,0.2173,0.2012,0.2012,0.2012,0,0.1499,0.1521,0.1558,0.1576,0.1601,0.1644,0.1665,0.1697,0.1756,0.1789,0.1802,0.1901,0.1919,0.1976,0.1997,0.2006,0.204,0.2001,0.2104,0.2114,0.2123,0.2165,0.2179,0.2015,0.2015,0.2014,0.2014,0,0.1505,0.1537,0.1552,0.1591,0.1621,0.165,0.1691,0.1741,0.179,0.1824,0.1911,0.1951,0.2012,0.2028,0.2026,0.2107,0.2111,0.2105,0.208,0.2138,0.2179,0.2193,0.2018,0.2017,0.2017,0.2016,0,0,0.1485,0.1546,0.1555,0.1575,0.1636,0.1653,0.171,0.1766,0.1824,0.1887,0.1964,0.2015,0.2064,0.2083,0.2112,0.2156,0.2248,0.2162,0.2164,0.2198,0.2384,0.2233,0.2233,0.227,0.2273,0.2275,0.2388,0,0.1483,0.1509,0.1553,0.1591,0.1606,0.1672,0.1721,0.1784,0.1858,0.1947,0.2004,0.2091,0.2078,0.214,0.2179,0.2245,0.2286,0.2217,0.2328,0.2331,0.2183,0.2244,0.2283,0.2398,0.2402,0.2404,0.2406,0,0.1472,0.1491,0.1523,0.1591,0.1609,0.165,0.1752,0.1806,0.1927,0.1999,0.2096,0.2158,0.2253,0.2234,0.2356,0.2322,0.2352,0.2382,0.2387,0.2237,0.2204,0.2328,0.243,0.2428,0.2426,0.2425,0.2423,0,0.1413,0.1475,0.1502,0.1521,0.1601,0.165,0.1709,0.1825,0.1905,0.2058,0.215,0.2254,0.235,0.2402,0.2462,0.2434,0.2582,0.2551,0.2436,0.2427,0.251,0.2499,0.2621,0.262,0.262,0.262,0.262,0,0.1374,0.1398,0.1485,0.149,0.1555,0.1624,0.173,0.1813,0.1966,0.2064,0.2186,0.2281,0.2403,0.2494,0.251,0.2518,0.2628,0.2447,0.2447,0.2526,0.2515,0.252,0.2507,0.2624,0.2623,0.2622,0.2622,0,0.1293,0.1353,0.1386,0.1478,0.1528,0.1571,0.1744,0.182,0.1977,0.2118,0.218,0.2354,0.2465,0.2553,0.266,0.2582,0.2604,0.2573,0.2665,0.2668,0.2395,0.2383,0.2454,0.2449,0.2445,0.2442,0.244,0,0.1242,0.1251,0.1363,0.1404,0.1456,0.1557,0.164,0.1814,0.1896,0.213,0.2176,0.236,0.2448,0.2487,0.2574,0.2609,0.2568,0.2558,0.2444,0.2385,0.238,0.2374,0.2367,0.2434,0.2433,0.2432,0.2431,0,0.1137,0.1199,0.1243,0.1323,0.1415,0.1494,0.1613,0.1683,0.1874,0.2045,0.2139,0.2208,0.2329,0.2394,0.2452,0.2457,0.2552,0.2519,0.2525,0.2417,0.2362,0.2359,0.2357,0.2418,0.242,0.2421,0.2422,0,0.1085,0.1096,0.1171,0.1241,0.1333,0.1373,0.1471,0.1572,0.1689,0.1941,0.1965,0.2146,0.2304,0.2317,0.2361,0.2371,0.232,0.2222,0.2242,0.2258,0.2137,0.2035,0.1998,0,0,0,0,0,0.1003,0.1013,0.1073,0.1128,0.1202,0.1252,0.1419,0.1523,0.1732,0.1752,0.1856,0.1951,0.2038,0.2127,0.2098,0.2263,0.2321,0.2217,0.2216,0.2347,0.2362,0.2236,0,0,0,0,0,0,0.096,0.0998,0.1035,0.101,0.1018,0.1087,0.1192,0.1341,0.1365,0.1582,0.1647,0.1798,0.1917,0.2018,0.204,0.2069,0.2023,0.2331,0.2326,0.2339,0.2352,0.2364,0.224,0,0,0,0,0]},{"header":{"parameterUnit":"m.s-1","parameterCategory":2,"la1":30.2991,"la2":30.254,"lo1":-89.0895,"lo2":-89.0444,"dy":0.0017,"dx":0.0017,"nx":28,"ny":28,"refTime":"2025-08-19T09:00:00:Z","depth":"4","parameterNumber":3,"parameterNumberName":"V-component_of_CURRENTS"},"data":[0,0,0,0,0,0,0,0,0,0,0,0,0,0,0,0,0,0,0,0,0,0,0,0,0,0,0,0,0,0,0,0,0,0,0,0,0,0,0,0,0,0,0,0,0,0,0,0,0,0,0,0,0,0,0,0,0,0,0.0167,0.0167,0,0.0136,0.0136,0.0135,0.0113,0.0113,0.0113,0.0113,0.0051,0.005,0.0048,0,0,0,0,0,0,0,0,0,0,0,0,0,0.0165,0.0165,0.0167,0.0167,0.0166,0.0136,0.0136,0.0135,0.0113,0.0113,0.0113,0.0113,0.0052,0.005,0.0048,0,0,0,0,0,0,0,0,0,0,0,0,0,0.0153,0.0165,0.0167,0.0152,0.015,0.0136,0.0136,0.0135,0.0113,0.0113,0.0113,0.0112,0.0052,0.005,0.0048,0.0038,0,0,0.0041,0.004,0,0,0,0,0,0,0,0,0.0153,0.0153,0.0155,0.0153,0.0151,0.0129,0.0112,0.0101,0.0113,0.0127,0.0113,0.0112,0.0075,0.0071,0.0065,0.0035,0.0032,0.0041,0.0039,0.0038,0.0038,0,0,0,0,0,0,0,0.0154,0.0154,0.0154,0.0154,0.0152,0.0132,0.0131,0.011,0.0101,0.0126,0.0124,0.0121,0.0073,0.0067,0.0063,0.0032,0.0041,0.0039,0.0037,0.0036,-0.0002,-0.0002,0,0,0,0,0,0,0.0162,0.0155,0.0155,0.0153,0.0152,0.0133,0.0131,0.0136,0.0102,0.0097,0.0122,0.012,0.0071,0.0066,0.0061,0.0066,0.0038,0.0036,0.0035,-0.0003,-0.0002,-0.0002,0,0,0,0,0,0,0.0162,0.0162,0.0156,0.0153,0.0151,0.0133,0.0139,0.0135,0.0132,0.01,0.0094,0.0122,0.0071,0.0064,0.0048,0.0062,0.0035,0.0033,-0.0003,-0.0002,-0.0002,0.0063,0,0,0,0,0,0,0.0162,0.0163,0.0168,0.0154,0.0152,0.0157,0.0139,0.0135,0.0131,0.0129,0.0098,0.0092,0.007,0.0051,0.0046,0.0059,0.0031,-0.0003,-0.0003,-0.0002,0.006,0.0066,0.007,0,0,0,0,0,0.0162,0.0175,0.0169,0.0169,0.016,0.0157,0.0155,0.014,0.0131,0.0135,0.0112,0.0093,0.0051,0.005,0.0043,0.0056,-0.0004,-0.0003,-0.0002,0.0058,0.0065,0.007,0,0,0,0,0,0,0.0176,0.0174,0.0167,0.0178,0.0171,0.0154,0.0156,0.0145,0.013,0.0129,0.0096,0.0088,0.0078,0.0057,0.0056,0.0045,0.0021,0.0021,0.0069,0.0075,0.008,0.0102,0.0029,0,0,0,0,0,0.0182,0.0193,0.0183,0.0192,0.019,0.0173,0.0169,0.0162,0.0147,0.014,0.0118,0.0095,0.0075,0.0068,0.0045,0.0041,0.0003,0.0044,0.0049,0.0053,0.0066,0.0017,0.0019,0.0001,0.0001,0.0001,0,0,0.0188,0.019,0.0195,0.0195,0.0188,0.0197,0.0171,0.0173,0.0184,0.0135,0.0141,0.0108,0.0076,0.0071,0.0065,0.0056,0.0036,0.0054,0.0058,0.0069,0.0018,0.002,0.0021,0.0001,0.0001,0.0001,0,0,0.0212,0.0209,0.0227,0.0227,0.0224,0.0217,0.022,0.0207,0.0206,0.0202,0.017,0.015,0.0122,0.0105,0.0092,0.0109,0.0059,0.01,0.0148,0.0101,0.0102,0.0103,0.0047,0.0042,0.0107,0.0108,0.0108,0,0.0219,0.0244,0.023,0.0248,0.0257,0.023,0.0253,0.0247,0.0232,0.0233,0.0213,0.0169,0.0141,0.0135,0.0144,0.0122,0.0081,0.0131,0.0108,0.0107,0.0107,0.005,0.0044,0.0111,0.011,0.011,0.011,0,0.0254,0.0277,0.0288,0.0306,0.031,0.0327,0.0319,0.0324,0.0312,0.0298,0.0285,0.024,0.0217,0.0202,0.0182,0.0171,0.0137,0.0115,0.0095,0.0113,0.0051,0.0044,0.0115,0.0114,0.0113,0.0113,0,0,0.0268,0.0308,0.0313,0.034,0.0347,0.0359,0.038,0.039,0.0404,0.0373,0.0381,0.0344,0.031,0.0293,0.0255,0.022,0.0178,0.0176,0.0172,0.0127,0.0062,0.004,0.0029,0.0148,0.0147,0.0147,0.0017,0,0.0303,0.0363,0.0367,0.0421,0.0453,0.0445,0.0467,0.0469,0.0458,0.0455,0.0406,0.0391,0.0347,0.0335,0.0294,0.0205,0.0162,0.0214,0.0048,0.0043,0.0026,0.0022,0.0144,0.0011,0.0009,0.0008,0.0007,0,0.0334,0.0378,0.0444,0.0499,0.0509,0.0534,0.0569,0.0583,0.0566,0.0555,0.0525,0.0476,0.0427,0.0384,0.0245,0.0277,0.0184,0.0109,0.0102,0.0058,0.0008,-0.001,-0.0008,-0.0007,-0.0006,-0.0005,-0.0004,0,0.0362,0.0429,0.0493,0.0511,0.0562,0.0593,0.0613,0.0615,0.0637,0.0618,0.0616,0.0539,0.05,0.038,0.0228,0.0234,0.0058,0.0041,-0.0069,-0.0073,-0.0043,-0.0042,-0.0055,-0.0055,-0.0055,-0.0054,-0.0054,0,0.0398,0.0448,0.0519,0.0554,0.0631,0.0641,0.0703,0.0708,0.0716,0.0735,0.067,0.0652,0.0497,0.0377,0.0239,0.0056,0.0059,-0.0061,-0.0104,-0.0015,-0.0009,-0.005,-0.0047,-0.0059,-0.0058,-0.0057,-0.0056,0,0.0415,0.0459,0.0538,0.0616,0.0649,0.07,0.0772,0.0809,0.0805,0.0827,0.0824,0.0728,0.0567,0.0393,0.0181,0.0072,-0.01,-0.0166,-0.0065,-0.0102,-0.0203,-0.0196,-0.0295,-0.0297,-0.0298,-0.03,-0.0301,0,0.043,0.0477,0.0586,0.0642,0.0684,0.0767,0.0825,0.0856,0.0889,0.0866,0.087,0.0737,0.0648,0.0334,0.0145,-0.013,-0.0164,-0.0251,-0.0211,-0.0193,-0.0226,-0.0216,-0.0207,-0.0303,-0.0304,-0.0304,-0.0304,0,0.0461,0.0499,0.0565,0.0681,0.0764,0.0855,0.0931,0.0963,0.0983,0.0982,0.0908,0.0754,0.0565,0.0329,0.011,-0.0084,-0.019,-0.0267,-0.0264,-0.0228,-0.0204,-0.0233,-0.0223,-0.031,-0.0309,-0.0308,-0.0308,0,0.0483,0.0528,0.0614,0.0716,0.0818,0.0908,0.0952,0.0987,0.1016,0.0986,0.0952,0.0758,0.0646,0.0349,0.0146,-0.0047,-0.0087,-0.0131,-0.0136,-0.0133,-0.0045,0.0012,-0.0063,0,0,0,0,0,0.0508,0.0558,0.0645,0.0753,0.085,0.0915,0.1007,0.1038,0.1059,0.1018,0.0989,0.0813,0.0514,0.0379,0.0183,0.0109,-0.0127,-0.0127,-0.0181,-0.0339,-0.0332,-0.0258,0,0,0,0,0,0,0.0522,0.0603,0.0642,0.0763,0.0838,0.0951,0.1015,0.1035,0.1008,0.0994,0.0835,0.0764,0.0467,0.0621,0.0176,0.0116,0.0057,-0.0267,-0.0271,-0.0342,-0.0336,-0.0332,-0.0253,0,0,0,0,0]}]]